TimeEDT,TemperatureF,Dew PointF,Humidity,Sea Level PressureIn,VisibilityMPH,Wind Direction,Wind SpeedMPH,Gust SpeedMPH,PrecipitationIn,Events,Conditions,WindDirDegrees,DateUTC
12:54 AM,48.9,48.0,97,30.00,10.0,Calm,Calm,-,0.00,,Scattered Clouds,0,2013-05-22 04:54:00
1:01 AM,48.2,48.2,100,29.99,10.0,Calm,Calm,-,N/A,,Mostly Cloudy,0,2013-05-22 05:01:00
1:12 AM,48.2,48.2,100,29.98,10.0,Calm,Calm,-,N/A,,Scattered Clouds,0,2013-05-22 05:12:00
1:52 AM,48.2,48.2,100,29.97,10.0,Calm,Calm,-,N/A,,Overcast,0,2013-05-22 05:52:00
1:54 AM,48.0,48.0,100,29.98,10.0,Calm,Calm,-,N/A,,Overcast,0,2013-05-22 05:54:00
2:36 AM,48.2,48.2,100,29.98,10.0,Calm,Calm,-,N/A,,Overcast,0,2013-05-22 06:36:00
2:54 AM,48.9,48.0,97,29.98,10.0,Calm,Calm,-,N/A,,Overcast,0,2013-05-22 06:54:00
3:29 AM,50.0,48.2,94,29.97,10.0,Calm,Calm,-,0.01,Rain,Light Rain,0,2013-05-22 07:29:00
3:54 AM,50.0,48.9,96,29.96,10.0,Calm,Calm,-,0.04,Rain,Light Rain,0,2013-05-22 07:54:00
4:11 AM,48.2,48.2,100,29.95,10.0,Calm,Calm,-,0.02,Rain,Light Rain,0,2013-05-22 08:11:00
4:25 AM,48.2,48.2,100,29.94,8.0,Calm,Calm,-,0.03,Rain,Light Rain,0,2013-05-22 08:25:00
4:42 AM,48.2,48.2,100,29.93,6.0,Calm,Calm,-,0.08,Rain,Rain,0,2013-05-22 08:42:00
4:54 AM,48.9,48.0,97,29.94,9.0,Calm,Calm,-,0.09,Rain,Light Rain,0,2013-05-22 08:54:00
5:54 AM,48.9,48.0,97,29.94,10.0,Calm,Calm,-,0.01,,Overcast,0,2013-05-22 09:54:00
6:54 AM,50.0,48.0,93,29.95,10.0,Calm,Calm,-,N/A,,Overcast,0,2013-05-22 10:54:00
7:06 AM,50.0,48.2,94,29.94,10.0,Calm,Calm,-,N/A,,Overcast,0,2013-05-22 11:06:00
7:33 AM,50.0,48.2,94,29.94,10.0,Calm,Calm,-,N/A,,Overcast,0,2013-05-22 11:33:00
7:54 AM,50.0,48.9,96,29.95,6.0,ESE,5.8,-,N/A,,Overcast,120,2013-05-22 11:54:00
8:40 AM,51.8,50.0,94,29.94,9.0,Variable,3.5,-,N/A,,Overcast,0,2013-05-22 12:40:00
8:54 AM,51.1,48.9,92,29.95,9.0,ESE,4.6,-,N/A,,Overcast,110,2013-05-22 12:54:00
9:54 AM,52.0,50.0,93,29.96,5.0,ESE,4.6,-,N/A,,Overcast,120,2013-05-22 13:54:00
10:54 AM,53.1,50.0,89,29.97,5.0,Calm,Calm,-,N/A,,Overcast,0,2013-05-22 14:54:00
11:54 AM,54.0,50.0,86,29.97,10.0,Calm,Calm,-,N/A,,Overcast,0,2013-05-22 15:54:00
12:36 PM,55.4,51.8,88,29.97,10.0,Calm,Calm,-,N/A,,Overcast,0,2013-05-22 16:36:00
12:54 PM,57.0,51.1,81,29.96,10.0,Variable,4.6,-,N/A,,Overcast,0,2013-05-22 16:54:00
1:54 PM,57.9,51.1,78,29.95,10.0,Variable,3.5,-,N/A,,Overcast,0,2013-05-22 17:54:00
2:12 PM,57.2,51.8,82,29.94,10.0,ESE,5.8,-,N/A,,Overcast,120,2013-05-22 18:12:00
2:19 PM,57.2,51.8,82,29.94,10.0,Variable,3.5,-,N/A,,Overcast,0,2013-05-22 18:19:00
2:54 PM,57.9,52.0,81,29.95,10.0,Variable,3.5,-,N/A,,Overcast,0,2013-05-22 18:54:00
3:54 PM,57.9,52.0,81,29.95,10.0,SE,4.6,-,N/A,,Overcast,140,2013-05-22 19:54:00
4:54 PM,57.0,52.0,83,29.94,10.0,ESE,4.6,-,N/A,,Overcast,110,2013-05-22 20:54:00
5:45 PM,57.2,53.6,88,29.94,10.0,SE,4.6,-,N/A,,Overcast,130,2013-05-22 21:45:00
5:54 PM,57.0,53.1,87,29.94,10.0,SE,5.8,-,N/A,,Overcast,130,2013-05-22 21:54:00
6:45 PM,55.4,51.8,88,29.95,9.0,ESE,3.5,-,0.00,Rain,Light Rain,110,2013-05-22 22:45:00
6:54 PM,55.9,53.1,90,29.97,8.0,Calm,Calm,-,0.01,Rain,Light Rain,0,2013-05-22 22:54:00
7:08 PM,55.4,53.6,94,29.96,9.0,Calm,Calm,-,0.01,Rain,Light Rain,0,2013-05-22 23:08:00
7:39 PM,55.4,53.6,94,29.96,10.0,Calm,Calm,-,0.02,,Overcast,0,2013-05-22 23:39:00
7:54 PM,55.0,54.0,96,29.96,9.0,SE,3.5,-,0.02,Rain,Light Rain,130,2013-05-22 23:54:00
8:01 PM,55.4,53.6,94,29.96,9.0,ESE,3.5,-,0.00,Rain,Light Rain,120,2013-05-23 00:01:00
8:10 PM,53.6,53.6,100,29.95,9.0,SE,4.6,-,0.00,Rain,Light Rain,130,2013-05-23 00:10:00
8:54 PM,54.0,53.1,97,29.97,9.0,Calm,Calm,-,0.00,,Overcast,0,2013-05-23 00:54:00
9:41 PM,53.6,53.6,100,29.97,10.0,Calm,Calm,-,N/A,,Overcast,0,2013-05-23 01:41:00
9:54 PM,54.0,52.0,93,29.97,10.0,SSE,3.5,-,N/A,,Overcast,150,2013-05-23 01:54:00
10:22 PM,53.6,51.8,94,29.97,7.0,ESE,4.6,-,N/A,,Overcast,120,2013-05-23 02:22:00
10:54 PM,52.0,51.1,97,29.97,4.0,SE,4.6,-,N/A,,Overcast,130,2013-05-23 02:54:00
11:42 PM,51.8,51.8,100,29.95,4.0,SE,3.5,-,N/A,,Overcast,140,2013-05-23 03:42:00
11:54 PM,51.1,50.0,96,29.95,3.0,ESE,3.5,-,N/A,,Overcast,120,2013-05-23 03:54:00